Terminal Aerodrome Forecast
Issued by NWS Knoxville/Tri Cities, TN

Home | Current Version | Previous Version | Text Only | Print | Product List | Glossary On
Versions: 1 2 3 4 5 6 7 8 9 10 11 12 13 14 15 16 17
000
FTUS44 KMRX 302320
TAFTRI
TAF
KTRI 302320Z 3100/3124 VRB03KT P6SM SCT250
     FM310700 00000KT 4SM BR SCT250
     FM310900 00000KT 2SM BR SCT250
     FM311400 00000KT P6SM SCT250=

USA.gov is the U.S. government's official web portal to all federal, state and local government web resources and services.